Torna al catalogo

NOAA 16 DEB

AttivoSSO
NORAD 41298·DEBRIS·🇺🇸 United States

Lanciato Sep 21, 2000 da Vandenberg Space Force Base

Loading…

Prossimi Passaggi (prossime 24 ore)

TLE

AggiornatoSource: Space-Track

Epoca: Sep 14, 2026, 10:36 UTC

1 41298U 00055HA  26257.44188908  .00002297  00000-0  92950-3 0  9996
2 41298  98.7061 333.1338 0050194 126.8321 233.7480 14.28085685553415

Traccia NOAA 16 DEB in tempo reale con AllMySat

Download on the App Store